Simultaneous Nadir Overpasses (SNOs) Predictions

Prediction of SNOs between NOAA-20 and METOP-C Satellite Orbit:

Table of predicted SNOs for the next 14.0 days since TLE Epoch: 7/6/2019
Index Date (NOAA-20) Time (NOAA-20) Lat,Lon (NOAA-20) SZA (NOAA-20 ) Date (METOP-C) Time (METOP-C) Lat,Lon (METOP-C) SZA (METOP-C ) Distance(km) Time Diff (sec)
1 07/15/2019 18:49:06 -73.52, 67.87 127.67 07/15/2019 18:50:12 -73.45, 70.98 127.93 98.82 66
2 07/15/2019 19:39:48 73.33,-124.39 52.12 07/15/2019 19:40:56 73.26,-122.12 51.91 72.89 68
3 07/15/2019 20:30:30 -73.23, 43.15 127.99 07/15/2019 20:31:39 -73.18, 45.04 128.16 60.99 69
4 07/15/2019 21:21:12 73.03,-149.12 51.81 07/15/2019 21:22:23 72.98,-148.05 51.68 34.98 71
5 07/15/2019 22:11:54 -72.93, 18.41 128.30 07/15/2019 22:13:07 -72.86, 19.01 128.43 21.35 73
6 07/15/2019 23:02:36 72.74,-173.86 51.49 07/15/2019 23:03:49 72.76,-173.86 51.49 2.59 73
7 07/15/2019 23:53:20 -72.74, -6.55 128.51 07/15/2019 23:54:31 -72.74, -6.58 128.53 1.11 71
8 07/16/2019 00:44:06 72.74, 160.75 51.51 07/16/2019 00:45:11 72.74, 160.76 51.49 0.56 65
9 07/16/2019 01:34:50 -72.75, -31.94 128.49 07/16/2019 01:35:52 -72.77, -31.86 128.49 3.42 62
10 07/16/2019 02:25:36 72.75, 135.36 51.53 07/16/2019 02:26:33 72.72, 135.37 51.48 3.56 57
11 07/16/2019 03:16:20 -72.75, -57.33 128.47 07/16/2019 03:17:14 -72.75, -57.24 128.49 3.09 54
12 07/16/2019 04:07:05 72.71, 110.07 51.49 07/16/2019 04:07:55 72.70, 109.99 51.48 2.81 50
13 07/16/2019 04:57:49 -72.71, -82.62 128.50 07/16/2019 04:58:36 -72.73, -82.63 128.50 1.66 47
14 07/16/2019 05:48:35 72.71, 84.68 51.51 07/16/2019 05:49:16 72.73, 84.72 51.51 1.99 41
15 07/16/2019 06:39:19 -72.72,-108.01 128.48 07/16/2019 06:39:58 -72.70,-108.01 128.51 1.41 39
16 07/16/2019 07:30:05 72.72, 59.30 51.53 07/16/2019 07:30:38 72.71, 59.33 51.51 1.89 33
17 07/16/2019 08:20:48 -72.67,-133.29 128.52 07/16/2019 08:21:20 -72.68,-133.39 128.51 3.44 32
18 07/16/2019 09:11:34 72.68, 34.01 51.49 07/16/2019 09:12:00 72.69, 33.95 51.50 2.27 26
19 07/16/2019 10:02:18 -72.68,-158.68 128.50 07/16/2019 10:02:42 -72.66,-158.77 128.52 3.53 24
20 07/16/2019 10:53:04 72.69, 8.62 51.51 07/16/2019 10:53:22 72.67, 8.57 51.49 2.47 18
21 07/16/2019 11:43:48 -72.69, 175.93 128.48 07/16/2019 11:44:03 -72.69, 175.95 128.48 1.00 15
22 07/16/2019 12:34:34 72.69, -16.77 51.53 07/16/2019 12:34:43 72.70, -16.71 51.53 2.19 9
23 07/16/2019 13:25:18 -72.70, 150.54 128.46 07/16/2019 13:25:25 -72.67, 150.57 128.49 2.51 7
24 07/16/2019 14:16:04 72.70, -42.16 51.55 07/16/2019 14:16:05 72.68, -42.09 51.53 3.24 1
25 07/16/2019 15:06:47 -72.65, 125.26 128.50 07/16/2019 15:06:47 -72.65, 125.19 128.49 2.27 0
26 07/16/2019 15:57:33 72.66, -67.44 51.52 07/16/2019 15:57:27 72.66, -67.47 51.52 0.96 6
27 07/16/2019 16:48:17 -72.66, 99.87 128.48 07/16/2019 16:48:08 -72.68, 99.91 128.45 3.19 9
28 07/16/2019 17:39:03 72.66, -92.83 51.53 07/16/2019 17:38:49 72.64, -92.85 51.52 2.83 14
29 07/16/2019 18:29:47 -72.67, 74.48 128.46 07/16/2019 18:29:30 -72.66, 74.53 128.46 1.69 17
30 07/16/2019 19:20:33 72.67,-118.22 51.55 07/16/2019 19:20:10 72.67,-118.13 51.55 3.05 23
31 07/16/2019 20:11:16 -72.62, 49.19 128.50 07/16/2019 20:10:52 -72.64, 49.15 128.47 2.82 24
32 07/16/2019 21:02:02 72.63,-143.50 51.52 07/16/2019 21:01:32 72.65,-143.51 51.55 2.46 30
33 07/16/2019 21:52:46 -72.63, 23.81 128.48 07/16/2019 21:52:14 -72.62, 23.77 128.47 1.43 32
34 07/16/2019 22:43:31 72.63,-168.89 51.54 07/16/2019 22:42:53 72.63,-168.89 51.54 0.62 38
35 07/16/2019 23:34:15 -72.64, -1.58 128.46 07/16/2019 23:33:34 -72.65, -1.51 128.43 3.10 41
36 07/17/2019 00:25:00 72.59, 165.82 51.50 07/17/2019 00:24:15 72.61, 165.73 51.54 3.67 45
37 07/17/2019 01:15:45 -72.64, -26.97 128.44 07/17/2019 01:14:56 -72.63, -26.89 128.44 2.91 49
38 07/17/2019 02:06:30 72.60, 140.43 51.52 07/17/2019 02:05:37 72.59, 140.35 51.53 3.02 53
39 07/17/2019 02:57:14 -72.60, -52.26 128.47 07/17/2019 02:56:18 -72.61, -52.27 128.45 1.54 56
40 07/17/2019 03:48:00 72.60, 115.04 51.54 07/17/2019 03:46:58 72.62, 115.07 51.57 1.77 62
41 07/17/2019 04:38:44 -72.61, -77.65 128.45 07/17/2019 04:37:40 -72.59, -77.65 128.45 1.62 64
42 07/17/2019 05:29:30 72.61, 89.65 51.56 07/17/2019 05:28:20 72.60, 89.69 51.56 1.91 70
43 07/17/2019 06:20:13 -72.56,-102.93 128.49 07/17/2019 06:19:02 -72.57,-103.03 128.46 3.56 71
44 07/17/2019 07:10:57 72.47, 64.57 51.41 07/17/2019 07:09:44 72.48, 64.10 51.47 15.84 73
45 07/17/2019 08:01:40 -72.42,-128.01 128.64 07/17/2019 08:00:27 -72.40,-128.72 128.59 23.83 73
46 07/17/2019 08:52:21 72.17, 39.79 51.10 07/17/2019 08:51:11 72.20, 38.22 51.24 53.54 70
47 07/17/2019 09:43:04 -72.12,-152.81 128.95 07/17/2019 09:41:54 -72.12,-154.60 128.82 61.22 70
48 07/17/2019 10:33:45 71.86, 14.99 50.78 07/17/2019 10:32:39 71.87, 12.26 50.97 94.50 66




NCC Satellite Simultaneous Nadir Overpasses (SNOs) Prediction Service
